Tracking 28790 objects as of 19-Apr-2024
HD Live streaming from Space Station
objects crossing your sky now

ZY 3

Track ZY 3 now!
10-day predictions
ZY 3 is classified as:


NORAD ID: 38046
Int'l Code: 2012-001A
Perigee: 480.8 km
Apogee: 486.7 km
Inclination: 97.3 °
Period: 94.1 minutes
Semi major axis: 6854 km
RCS: 5.391 m2 (large)
Launch date: January 9, 2012
Source: People's Republic of China (PRC)
Launch site: Taiyaun Space Center, China (TSC)
Your satellite tracking list
Your tracking list is empty




NASA's NSSDC Master Catalog

Two Line Element Set (TLE):
1 38046U 12001A   24110.47901201  .00026193  00000-0  90937-3 0  9999
2 38046  97.2520 173.7663 0004307  11.4846 348.6492 15.29741471681955
Source of the keplerian elements: AFSPC